Tracking 30743 objects as of 21-Jun-2025
HD Live streaming from Space Station
objects crossing your sky now

STARLINK-30247

Track STARLINK-30247 now!
10-day predictions
STARLINK-30247 is classified as:


NORAD ID: 57644
Int'l Code: 2023-122N
Perigee: 565.5 km
Apogee: 566.9 km
Inclination: 43.0 °
Period: 95.8 minutes
Semi major axis: 6937 km
RCS: Unknown
Launch date: August 17, 2023
Source: United States (US)
Launch site: AIR FORCE EASTERN TEST RANGE (AFETR)
Your satellite tracking list
Your tracking list is empty




NASA's NSSDC Master Catalog

Two Line Element Set (TLE):
1 57644U 23122N   25172.43466687 -.00000272  00000-0 -50895-5 0  9992
2 57644  43.0052  74.1127 0001046 262.3558  97.7166 15.02534279102867
Source of the keplerian elements: AFSPC